www.pogodaiklimat.ru

Погода и климат >> Архив погоды >> Мексика >> Арриага


ПОГОДА в Арриаге

  • Прогноз погоды в Арриаге
  • Монитор погоды в Арриаге

АРХИВ ПОГОДЫ в Арриаге

Время (UTC), дата Ветер
(напр.,м/с)
 
Видим.   Явления Облачность Т
(С)
Тd
(С)
f
(%)
Тe
(С)
Тes
(С)
Комфортность P
(гПа)
Po
(гПа)
Тmin
(С)
Tmax
(С)
R
(мм)
R24
(мм)
S
(см)
21 15.09 С 1 2000 м 6/1 840 м
[Sc diur, vesp Cs]
+35.2 +28.8 70 +58 +69 опасность
перегрева
1008.6 1003.2
00 16.09 штиль 0 2000 м 6/1 840 м
[Cu med, cong As trans]
+31.0 +27.1 80 +49 +49 опасность
перегрева
1009.7 1004.3 +24.0 +37.0
03 16.09 штиль 0 2000 м 6/1 840 м
[Cb cap As trans]
+28.8 +27.0 90 +45 +45 опасность
перегрева
1010.7 1005.3
06 16.09 С 1 2000 м {морось} 5/0 2000 м
[As op]
+27.2 +25.9 93 +41 +41 опасность
перегрева
1012.2 1006.7 +23.0 +37.0 0.5
12 16.09 С 3 2000 м 5/0 2000 м
[Ac trans]
+28.2 +26.4 90 +43 +43 опасность
перегрева
1011.0 1005.5 +24.4 +37.0
15 16.09 С 2 3000 м 4/0 2000 м
[Ac trans]
+31.4 +26.7 76 +48 +55 опасность
перегрева
1012.5 1007.0
18 16.09 С 1 3000 м 6/1 840 м
[Cu med, cong Ac trans]
+34.0 +27.5 69 +53 +68 опасность
перегрева
1011.6 1006.1 +24.4 +35.6
21 16.09 С 1 3000 м 5/5 800 м
[Cb cap]
+34.0 +28.2 72 +55 +62 опасность
перегрева
1009.2 1003.8
00 17.09 штиль 0 2000 м {морось} 8/8 800 м
[Cb cap]
+29.5 +25.5 79 +43 +43 опасность
перегрева
1009.3 1003.9 +23.0 +35.8 0.8
03 17.09 штиль 0 1000 м гроза без осадков 8/8 800 м
[Cb cap]
+27.4 +25.5 89 +40 +40 очень
душно
1011.1 1005.6
06 17.09 штиль 0 1000 м слаб. морось {дождь, гроза} 10/5 600 м
[Cb cap]
+24.8 +23.7 94 +34 +34 очень
душно
1013.9 1008.4 24
09 17.09 штиль 0 1000 м зарница 9/4 800 м
[Cb cap As op]
+24.2 +23.6 96 +33 +33 очень
душно
1012.0 1006.4 0.2
12 17.09 штиль 0 2000 м 10/5 1020 м
[Sc Ac As]
+24.0 +23.4 96 +32 +32 очень
душно
1012.8 1007.2 +22.0 +35.8 9
15 17.09 штиль 0 3000 м 8/6 2000 м
[Sc diur, vesp Cs]
+26.1 +24.5 91 +37 +42 очень
душно
1014.4 1008.8
18 17.09 штиль 0 3000 м 10/3 1020 м
[Sc diur, vesp Ac und]
+31.1 +26.5 77 +48 +54 опасность
перегрева
1014.7 1009.1 +22.0 +32.6
21 17.09 Ю 1 4000 м 6/6 800 м
[Sc]
+31.2 +28.0 83 +51 +57 опасность
перегрева
1011.7 1006.1
00 18.09 Ю 1 4000 м 8/8 800 м
[Sc]
+27.8 +24.3 81 +39 +39 очень
душно
1013.3 1007.8 +22.0 +33.6
03 18.09 штиль 0 1000 м {морось} 9/5 800 м
[Sc Ac As]
+25.6 +23.1 86 +34 +34 очень
душно
1014.6 1009.1 2
09 18.09 С 1 1000 м 9/4 800 м
[St Ac As]
+25.2 +21.8 81 +32 +32 очень
душно
1012.6 1007.1
12 18.09 штиль 0 3000 м 9/0 2000 м
[Ac As]
+24.4 +22.4 89 +32 +32 очень
душно
1012.9 1007.3 +20.0 +33.6
15 18.09 штиль 0 5000 м 3/3 800 м
[Cu hum]
+28.9 +24.0 75 +40 +48 очень
душно
1013.9 1008.3
18 18.09 Ю 1 5000 м 4/4 800 м
[Cu hum]
+34.2 +26.7 65 +51 +66 опасность
перегрева
1012.7 1007.2 +20.0 +35.8
21 18.09 штиль 0 5000 м 5/5 800 м
[Cu hum]
+34.8 +27.9 68 +56 +63 опасность
перегрева
1009.5 1004.0
00 19.09 штиль 0 4000 м слаб. морось 8/4 800 м
[Sc Ac As]
+28.8 +26.1 85 +43 +43 опасность
перегрева
1010.3 1004.9 +20.0 +37.0 0.4
03 19.09 штиль 0 100 м слаб. морось 8/4 800 м
[Sc Ac As]
+26.8 +25.5 93 +39 +39 очень
душно
1011.9 1006.5 0.6
06 19.09 штиль 0 100 м 4/4 800 м
[Cu hum]
+26.0 +24.6 92 +37 +37 очень
душно
1011.2 1005.7 +20.0 +37.0
09 19.09 штиль 0 100 м 4/4 800 м
[Cu hum]
+25.4 +23.5 89 +34 +34 очень
душно
1010.5 1004.9
12 19.09 штиль 0 5000 м 4/0 2000 м
[Ac trans]
+24.6 +23.5 94 +33 +33 очень
душно
1010.2 1004.7 +21.0 +37.0
15 19.09 штиль 0 5000 м 5/0
[Cs]
+29.8 +26.5 83 +46 +57 опасность
перегрева
1010.9 1005.3
18 19.09 штиль 0 5000 м 6/0
[Cs]
+33.2 +27.8 73 +53 +77 опасность
перегрева
1009.4 1003.9 +21.0 +36.5
21 19.09 СВ 1 2000 м морось 5/1 840 м
[Cb cap As op]
+33.6 +28.4 74 +55 +63 опасность
перегрева
1007.8 1002.4 0.3
00 20.09 штиль 0 2000 м дождь {морось} 6/3 840 м
[Sc diur, vesp As op]
+28.4 +25.7 85 +42 +42 опасность
перегрева
1009.0 1003.5 +20.0 +36.6 3
03 20.09 штиль 0 2000 м 4/4 840 м
[Sc diur, vesp]
+27.4 +25.0 87 +39 +39 очень
душно
1010.1 1004.6
06 20.09 штиль 0 2000 м 5/0 2000 м
[Ac trans]
+26.0 +24.6 92 +37 +37 очень
душно
1010.2 1004.7 +20.0 +36.6
09 20.09 штиль 0 2000 м 3/0 2000 м
[Ac trans]
+25.2 +24.1 94 +35 +35 очень
душно
1008.8 1003.2
12 20.09 штиль 0 2000 м 3/3 840 м
[Sc diur, vesp]
+24.8 +23.7 94 +34 +34 очень
душно
1009.6 1004.0 +21.0 +36.6
15 20.09 штиль 0 2000 м 3/3 840 м
[Cu hum]
+30.4 +24.7 72 +43 +52 опасность
перегрева
1010.9 1005.3
18 20.09 С 1 2000 м 1/1 840 м
[Cu med, cong]
+35.0 +27.2 64 +53 +75 опасность
перегрева
1009.3 1003.8 +21.0 +36.6
21 20.09 С 1 4000 м 8/0 2000 м
[As op]
+29.2 +26.3 84 +44 +49 опасность
перегрева
1009.1 1003.6
00 21.09 штиль 0 3000 м дождь 4/0 2000 м
[As trans]
+26.6 +24.4 88 +37 +37 очень
душно
1008.1 1002.6 6
03 21.09 штиль 0 2000 м ясно +25.4 +23.2 88 +34 +34 очень
душно
1010.4 1004.9
09 21.09 штиль 0 1000 м 4/0
[Cs]
+26.4 +23.1 82 +35 +35 очень
душно
1010.7 1005.2
15 21.09 штиль 0 3000 м 8/0 2000 м
[As trans Cc]
+27.2 +24.5 85 +38 +46 очень
душно
1013.5 1007.9
18 21.09 С 1 4000 м 8/4 840 м
[Sc diur, vesp Cc]
+32.6 +26.8 72 +50 +63 опасность
перегрева
1012.2 1006.7 +20.0 +37.2
21 21.09 штиль 0 2000 м 5/5 840 м
[Sc diur, vesp]
+29.8 +26.4 82 +46 +53 опасность
перегрева
1009.8 1004.3
00 22.09 штиль 0 2000 м 5/5 840 м
[Sc diur, vesp]
+26.6 +26.6 83 +22 +22 комфорт 1010.3 1004.8 +19.8 +37.0
03 22.09 штиль 0 2000 м 4/4 2000 м
[Cb calv Ac und Cs]
+2.7 +25.5 100 +1 +1 1012.6 1007.1
06 22.09 штиль 0 2000 м 4/0 2000 м
[Ac lent]
+26.4 +24.8 91 +38 +38 очень
душно
1012.7 1007.2 +19.6 +37.0
09 22.09 штиль 0 2000 м 5/0 2000 м
[Ac lent]
+25.2 +24.3 95 +35 +35 очень
душно
1011.1 1005.5
12 22.09 штиль 0 2000 м 4/0 2000 м
[Ac trans]
+24.8 +23.7 94 +34 +34 очень
душно
1012.2 1006.6 +22.0 +37.0
15 22.09 штиль 0 2000 м 3/3 840 м
[Sc diur, vesp]
+29.6 +25.0 76 +42 +51 опасность
перегрева
1014.2 1008.6
18 22.09 Ю 2 2000 м 5/5 840 м
[Sc diur, vesp]
+33.6 +26.5 66 +50 +60 опасность
перегрева
1012.5 1007.0 +22.0 +35.0

 

Местоположение метеостанции Арриага (Мексика): широта 16.23 долгота -93.90 высота над уровнем моря 48 м.

В архиве по умолчанию представлена погода в Арриаге за последнюю неделю. Архивные данные за месяц целиком и за предыдущие месяцы, начиная с января 2011 года, Вы можете получить, выбрав интересующий диапазон дат из раскрывающегося списка и нажав кнопку "Ввод!".


*Определитесь, кто Вы:
робот инопланетянин человек

Внимание! Время в таблицах - всемирное. Для получения местного времени необходимо прибавить поправку, которая равна -6 ч.

Смотрите также архив погоды в соседних городах и на ближайших метеорологических станциях:

Погода в Тустла-Гутьерресе (Мексика) (100 км)
Погода в Салина-Крусе (Мексика) (137 км)
Погода в Сан-Кристобаль-де-лас-Касасе (Мексика) (147 км)
Погода в Комитане (Мексика) (189 км)
Погода в Коацакоалькосе (Мексика) (218 км)
Погода в Вильяэрмосе (Мексика) (220 км)
Погода в Тапачуле (Мексика) (229 км)
Погода в Уэуэтенанго (Гватемала) (280 км)
Погода в Пуэрто-Анхеле (Мексика) (283 км)
Погода в Оахаке (Мексика) (313 км)

Пояснения к столбцам:

Ветер - указаны скорость ветра в м/с - средняя за 10 мин, порывы в срок и между сроками (в фигурных скобках) и направление, откуда дует ветер: С - северный, СВ - северо-восточный, В - восточный, ЮВ - юго-восточный, Ю - южный, ЮЗ - юго-западный, З - западный, СЗ - северо-западный.
Видимость - горизонтальная дальность видимости в метрах или километрах. При видимости от 1 до 10 км при отсутствии осадков обычно наблюдается дымка, при ухудшении видимости до 1 км и менее - туман. В сухую погоду видимость может ухудшаться дымом, пылью или мглою.
Явления - указаны атмосферные явления, наблюдавшиеся в срок или в последний час перед сроком; фигурными скобками обозначены явления, наблюдавшиеся между сроками (за 1-3 часа до срока); квадратными скобками обозначены град или гололедные отложения с указанием их диаметра в мм.
Облачность - указаны через наклонную черту общая и нижняя облачность в баллах и высота нижней границы облаков в метрах; квадратными скобками обозначены формы облаков: Ci - перистые, Cs - перисто-слоистые, Cc - перисто-кучевые, Ac - высококучевые, As - высокослоистые, Sc - слоисто-кучевые, Ns - слоисто-дождевые, Cu - кучевые, Cb - кучево-дождевые. Подробнее классификацию облаков см. в Атласе облаков (PDF).
T - Температура воздуха - температура, измеренная на высоте 2 м над землей.
Td - Температура точки росы - температура, при понижении до которой содержащийся в воздухе водяной пар достигнет насыщения.
f - Относительная влажность воздуха - влажноcть воздуха, измеренная на высоте 2 м над землей.
Te - Эффективная температура - температура, которую ощущает одетый по сезону человек в тени. Характеристика душности погоды. При расчете учитывается влияние влажности воздуха и скорости ветра на теплоощущения человека.
Tes - Эффективная температура на солнце - температура, которую ощущает человек, с поправкой на солнечный нагрев. Характеристика знойности погоды. Зависит от высоты солнца над горизонтом, облачности и скорости ветра. Ночью, в пасмурную погоду, а также при ветре 12 м/с и более поправка равна нулю.
P - Атмосферное давление - приведенное к уровню моря атмосферное давление.
Po - Атмосферное давление - измеренное на уровне метеостанции атмосферное давление.
Tmin - Минимальная температура - минимум температуры воздуха на высоте 2 м над землей.
Tmax - Максимальная температура - максимум температуры воздуха на высоте 2 м над землей.
R - Количество осадков - Количество выпавших осадков за период времени, мм. При наведении курсора мыши на число - период времени, за который выпало указанное количество осадков.
R24 - Количество осадков - Количество выпавших осадков за 24 часа, мм.
S - Снежный покров - Высота снежного покрова, см. При наведении курсора мыши на число - состояние снежного покрова и степень покрытия местности в баллах.